Meteo Giornale » Osservazioni meteo Svezia » Stockholm-Arlanda

ore: 06:20 - Osservazioni Meteo Stockholm-Arlanda
Lat. 59° 39' N Lon. 17° 57' E Alt. 38 metri s.l.m.

coperto Europe/Stockholm

17 °C

Coperto

Temp. 24 Ore

17 °C

29 °C

Nord

3.7 Km/h

Dew point 17 °C

Umidità 100 %

Visibilità  8 Km

Il sole sorge alle ore 04:20

Il sole tramonta alle ore 21:29

Data e Ora Cielo e Fenomeni T °C DP °C Um. % Pres. hPa Vis. km Vento km/h
Oggi h: 06:20 coperto Coperto 17 17 100 1007 8 N 3.7
Oggi h: 05:50 coperto Coperto 17 17 100 1007 8 N 5.5
Oggi h: 05:20 coperto Coperto 17 17 100 1008 6 N/NE 11.1
Oggi h: 04:50 coperto Coperto 17 17 100 1008 7 N/NE 9.3
Oggi h: 04:20 coperto_pioggia Pioviggine Leggera 17 17 100 1008 7 NE 9.3
Oggi h: 03:50 coperto_pioggia Pioggia Debole 17 17 100 1008 8 N 9.3
Oggi h: 03:20 coperto_pioggia Pioggia Debole 18 17 93 1008 6 N 7.4
Oggi h: 02:50 coperto_pioggia Pioggia Debole 18 17 93 1009 7 N 1.8
Oggi h: 02:20 coperto_pioggia Pioggia Debole 18 17 93 1009 10 N 5.5
Oggi h: 01:50 coperto_pioggia Pioggia Debole 19 17 88 1009 10 N 5.5
Oggi h: 01:20 coperto_pioggia Pioggia Debole 20 16 77 1009 10 S/SE 7.4
Oggi h: 00:50 coperto_pioggia Pioggia Debole 20 18 88 1010 10 SE 9.3
Oggi h: 00:20 sereno Sereno 20 17 82 1010 10 SE 7.4
Ieri h: 23:50 sereno Sereno 20 18 88 1009 10 E 11.1
Ieri h: 23:20 sereno Sereno 21 18 82 1010 10 E/SE 13
Ieri h: 22:50 coperto_pioggia Pioggia Debole 21 17 77 1010 10 E 14.8
Ieri h: 22:20 sereno Sereno 21 17 77 1010 10 E 7.4
Ieri h: 21:50 sereno Sereno 22 17 73 1010 10 E 11.1
Ieri h: 21:20 sereno Sereno 22 17 73 1010 10 E 13
Ieri h: 20:50 sereno Sereno 23 16 64 1010 10 E 14.8
Ieri h: 20:20 sereno Sereno 23 16 64 1010 10 E 14.8
Ieri h: 19:50 sereno Sereno 24 16 60 1010 10 E 14.8
Ieri h: 19:20 sereno Sereno 24 15 57 1010 10 E/SE 18.5
Ieri h: 18:50 sereno Sereno 25 14 50 1010 10 E 18.5
Ieri h: 18:20 sereno Sereno 26 14 47 1010 10 E 18.5
Ieri h: 17:50 sereno Sereno 26 13 44 1011 10 E 20.3
Ieri h: 17:20 sereno Sereno 27 13 42 1011 10 E/SE 24
Ieri h: 16:50 sereno Sereno 27 13 42 1011 10 SE 25.9
Ieri h: 16:20 sereno Sereno 28 13 39 1011 10 E 27.8
Ieri h: 15:50 sereno Sereno 28 13 39 1011 10 E/SE 27.8
Ieri h: 15:20 sereno Sereno 28 13 39 1011 10 E 29.6
Ieri h: 14:50 sereno Sereno 28 12 37 1011 10 E 27.8
Ieri h: 14:20 sereno Sereno 29 12 35 1012 10 E 29.6
Ieri h: 13:50 sereno Sereno 28 12 37 1012 10 E 29.6
Ieri h: 13:20 sereno Sereno 28 13 39 1012 10 E 25.9
Ieri h: 12:50 sereno Sereno 27 13 42 1012 10 E/SE 25.9
Ieri h: 12:20 sereno Sereno 28 14 42 1012 10 E 25.9
Ieri h: 11:50 sereno Sereno 27 14 44 1013 10 E 25.9
Ieri h: 11:20 sereno Sereno 27 14 44 1013 10 E/SE 25.9
Ieri h: 10:50 sereno Sereno 27 15 47 1013 10 E/NE 24
Ieri h: 10:20 sereno Sereno 26 15 50 1013 10 E 22.2
Ieri h: 09:50 sereno Sereno 26 15 50 1013 10 E/NE 18.5
Ieri h: 09:20 sereno Sereno 24 16 60 1013 10 E 16.7
Ieri h: 08:50 sereno Sereno 23 15 60 1013 10 E 18.5
Ieri h: 08:20 sereno Sereno 22 16 68 1013 10 E/NE 20.3
Ieri h: 07:50 sereno Sereno 21 15 68 1013 10 E/NE 20.3
Ieri h: 07:20 sereno Sereno 20 16 77 1014 10 E/NE 20.3